Tracking 28790 objects as of 19-Apr-2024
HD Live streaming from Space Station
objects crossing your sky now

STARLINK-1213

Track STARLINK-1213 now!
10-day predictions
STARLINK-1213 is classified as:


NORAD ID: 45400
Int'l Code: 2020-019AS
Perigee: 492.6 km
Apogee: 497.7 km
Inclination: 53.1 °
Period: 94.4 minutes
Semi major axis: 6866 km
RCS: Unknown
Launch date: March 18, 2020
Source: United States (US)
Launch site: AIR FORCE EASTERN TEST RANGE (AFETR)
Your satellite tracking list
Your tracking list is empty




NASA's NSSDC Master Catalog

Two Line Element Set (TLE):
1 45400U 20019AS  24109.97670691  .00040537  00000-0  15641-2 0  9994
2 45400  53.0857 321.3598 0003722 130.3975 229.7349 15.25921191226389
Source of the keplerian elements: AFSPC